CMP291 MSLP-MROC

Flight info

Callsign CMP291
Flight time 0h 56m
Altitude 35000
Route ALTEG2W ALTEG UG436 LIB BARRA3L
Aircraft B38M/M-SDE1FGHILORVWXY/HB1

Departure

Time 2026-04-29 20:34
Airport El Salvador International Airport Saint Óscar Arnulfo Romero y Galdámez (MSLP)

Arrival

Time 2026-04-29 21:30
Airport Juan Santamaría International Airport (MROC)
Time Latitude Longitude Altitude Speed Heading
2026-04-29 20:21 13.44402 -89.05699 97 ft 0 kts 342°
2026-04-29 20:29 13.44387 -89.05694 96 ft 2 kts 343°
2026-04-29 20:29 13.44371 -89.05689 95 ft 2 kts 341°
2026-04-29 20:29 13.44356 -89.05683 95 ft 2 kts 358°
2026-04-29 20:30 13.44341 -89.05689 97 ft 2 kts 32°
2026-04-29 20:30 13.44328 -89.05700 96 ft 2 kts 59°
2026-04-29 20:30 13.44325 -89.05707 95 ft 0 kts 69°
2026-04-29 20:31 13.44326 -89.05704 96 ft 2 kts 69°
2026-04-29 20:31 13.44337 -89.05673 95 ft 9 kts 69°
2026-04-29 20:31 13.44369 -89.05588 98 ft 15 kts 69°
2026-04-29 20:32 13.44409 -89.05482 100 ft 18 kts 69°
2026-04-29 20:32 13.44379 -89.05370 100 ft 16 kts 116°
2026-04-29 20:32 13.44412 -89.05217 101 ft 36 kts 70°
2026-04-29 20:32 13.44473 -89.05041 102 ft 39 kts 69°
2026-04-29 20:33 13.44459 -89.04819 105 ft 24 kts 160°
2026-04-29 20:33 13.44351 -89.04852 106 ft 13 kts 252°
2026-04-29 20:33 13.44283 -89.05047 103 ft 69 kts 249°
2026-04-29 20:33 13.44009 -89.05808 94 ft 154 kts 250°
2026-04-29 20:34 13.43532 -89.06866 850 ft 165 kts 240°
2026-04-29 20:34 13.43063 -89.08055 1557 ft 201 kts 249°
2026-04-29 20:34 13.42571 -89.09549 2032 ft 236 kts 251°
2026-04-29 20:34 13.41989 -89.11147 3106 ft 245 kts 244°
2026-04-29 20:35 13.41085 -89.12702 3971 ft 263 kts 232°
2026-04-29 20:35 13.39761 -89.14082 4870 ft 278 kts 217°
2026-04-29 20:35 13.38072 -89.15113 5853 ft 288 kts 202°
2026-04-29 20:35 13.36143 -89.15722 6920 ft 291 kts 188°
2026-04-29 20:36 13.34118 -89.15857 7967 ft 294 kts 175°
2026-04-29 20:36 13.32121 -89.15499 8998 ft 297 kts 161°
2026-04-29 20:36 13.30227 -89.14634 9996 ft 300 kts 146°
2026-04-29 20:36 13.28583 -89.13300 10930 ft 302 kts 131°
2026-04-29 20:37 13.27301 -89.11588 11795 ft 307 kts 119°
2026-04-29 20:37 13.26176 -89.09664 12437 ft 321 kts 119°
2026-04-29 20:37 13.24996 -89.07672 13192 ft 329 kts 119°
2026-04-29 20:37 13.23795 -89.05665 14068 ft 332 kts 119°
2026-04-29 20:38 13.22574 -89.03636 14807 ft 336 kts 119°
2026-04-29 20:38 13.21337 -89.01587 15575 ft 340 kts 119°
2026-04-29 20:38 13.20083 -88.99513 16317 ft 344 kts 118°
2026-04-29 20:38 13.18830 -88.97442 17040 ft 348 kts 118°
2026-04-29 20:39 13.17547 -88.95322 17745 ft 352 kts 118°
2026-04-29 20:39 13.16251 -88.93183 18393 ft 356 kts 118°
2026-04-29 20:39 13.14936 -88.91013 19004 ft 359 kts 118°
2026-04-29 20:39 13.13614 -88.88830 19624 ft 361 kts 118°
2026-04-29 20:40 13.12282 -88.86633 20224 ft 364 kts 118°
2026-04-29 20:40 13.10938 -88.84415 20829 ft 367 kts 118°
2026-04-29 20:40 13.10026 -88.82911 21231 ft 369 kts 118°
2026-04-29 20:40 13.08222 -88.79935 22015 ft 373 kts 118°
2026-04-29 20:41 13.07312 -88.78435 22393 ft 375 kts 118°
2026-04-29 20:41 13.05931 -88.76158 22975 ft 378 kts 118°
2026-04-29 20:41 13.04534 -88.73856 23511 ft 381 kts 118°
2026-04-29 20:41 13.03127 -88.71539 23976 ft 384 kts 118°
2026-04-29 20:42 13.01705 -88.69198 24438 ft 387 kts 119°
2026-04-29 20:42 12.99807 -88.66073 25045 ft 391 kts 119°
2026-04-29 20:42 12.98830 -88.64465 25348 ft 394 kts 120°
2026-04-29 20:42 12.97377 -88.62073 25797 ft 397 kts 120°
2026-04-29 20:43 12.95914 -88.59667 26242 ft 400 kts 120°
2026-04-29 20:43 12.94437 -88.57237 26663 ft 403 kts 120°
2026-04-29 20:43 12.92952 -88.54794 27081 ft 406 kts 120°
2026-04-29 20:43 12.91470 -88.52358 27503 ft 409 kts 121°
2026-04-29 20:44 12.89959 -88.49874 27924 ft 411 kts 121°
2026-04-29 20:44 12.88441 -88.47379 28335 ft 414 kts 121°
2026-04-29 20:44 12.86905 -88.44857 28740 ft 417 kts 121°
2026-04-29 20:44 12.85357 -88.42316 29122 ft 421 kts 122°
2026-04-29 20:45 12.83803 -88.39765 29495 ft 424 kts 122°
2026-04-29 20:45 12.82231 -88.37185 29862 ft 427 kts 123°
2026-04-29 20:45 12.80650 -88.34590 30175 ft 431 kts 123°
2026-04-29 20:45 12.79057 -88.31976 30469 ft 434 kts 123°
2026-04-29 20:46 12.77472 -88.29379 30787 ft 437 kts 123°
2026-04-29 20:46 12.75855 -88.26728 31077 ft 440 kts 123°
2026-04-29 20:46 12.74230 -88.24063 31386 ft 443 kts 124°
2026-04-29 20:46 12.72592 -88.21380 31690 ft 446 kts 124°
2026-04-29 20:47 12.70941 -88.18676 31984 ft 449 kts 124°
2026-04-29 20:47 12.69285 -88.15965 32288 ft 451 kts 125°
2026-04-29 20:47 12.67612 -88.13225 32587 ft 454 kts 125°
2026-04-29 20:47 12.65932 -88.10476 32880 ft 456 kts 125°
2026-04-29 20:48 12.64244 -88.07713 33184 ft 459 kts 125°
2026-04-29 20:48 12.62531 -88.04954 33548 ft 458 kts 129°
2026-04-29 20:48 12.60450 -88.02602 33948 ft 448 kts 145°
2026-04-29 20:48 12.57852 -88.00925 34296 ft 438 kts 160°
2026-04-29 20:49 12.55041 -87.99751 34588 ft 439 kts 158°
2026-04-29 20:49 12.52448 -87.98047 34795 ft 447 kts 143°
2026-04-29 20:49 12.50323 -87.95700 34838 ft 453 kts 129°
2026-04-29 20:49 12.48785 -87.92882 34817 ft 458 kts 114°
2026-04-29 20:50 12.46864 -87.86656 34797 ft 455 kts 123°
2026-04-29 20:50 12.45018 -87.84085 34829 ft 447 kts 136°
2026-04-29 20:50 12.42992 -87.81649 34817 ft 451 kts 133°
2026-04-29 20:51 12.39022 -87.76667 34816 ft 451 kts 133°
2026-04-29 20:51 12.35054 -87.71705 34813 ft 451 kts 133°
2026-04-29 20:52 12.31105 -87.66770 34818 ft 451 kts 133°
2026-04-29 20:52 12.27127 -87.61800 34814 ft 451 kts 133°
2026-04-29 20:53 12.23153 -87.56840 34820 ft 451 kts 133°
2026-04-29 20:53 12.19170 -87.51870 34813 ft 451 kts 133°
2026-04-29 20:54 12.13203 -87.44430 34811 ft 451 kts 133°
2026-04-29 20:55 12.09225 -87.39473 34819 ft 451 kts 133°
2026-04-29 20:55 12.05249 -87.34520 34815 ft 451 kts 133°
2026-04-29 20:56 12.01275 -87.29574 34816 ft 451 kts 133°
2026-04-29 20:56 11.97301 -87.24628 34812 ft 450 kts 133°
2026-04-29 20:57 11.93348 -87.19713 34810 ft 450 kts 133°
2026-04-29 20:57 11.89371 -87.14770 34808 ft 450 kts 133°
2026-04-29 20:58 11.85394 -87.09829 34807 ft 450 kts 133°
2026-04-29 20:58 11.81415 -87.04888 34808 ft 450 kts 133°
2026-04-29 20:59 11.77442 -86.99959 34806 ft 450 kts 133°
2026-04-29 20:59 11.73493 -86.95061 34803 ft 449 kts 133°
2026-04-29 21:00 11.69521 -86.90139 34801 ft 449 kts 133°
2026-04-29 21:00 11.65536 -86.85201 34803 ft 449 kts 133°
2026-04-29 21:01 11.61566 -86.80285 34802 ft 449 kts 133°
2026-04-29 21:01 11.57617 -86.75398 34804 ft 449 kts 133°
2026-04-29 21:02 11.53648 -86.70487 34801 ft 449 kts 133°
2026-04-29 21:02 11.49672 -86.65571 34801 ft 449 kts 133°
2026-04-29 21:03 11.45699 -86.60660 34803 ft 449 kts 134°
2026-04-29 21:03 11.41726 -86.55753 34805 ft 449 kts 133°
2026-04-29 21:04 11.37749 -86.50842 34799 ft 449 kts 133°
2026-04-29 21:04 11.33773 -86.45935 34803 ft 448 kts 133°
2026-04-29 21:05 11.29802 -86.41037 34804 ft 448 kts 133°
2026-04-29 21:05 11.25831 -86.36142 34800 ft 448 kts 133°
2026-04-29 21:06 11.21877 -86.31268 34800 ft 448 kts 133°
2026-04-29 21:06 11.17904 -86.26374 34799 ft 448 kts 133°
2026-04-29 21:07 11.13926 -86.21477 34801 ft 448 kts 133°
2026-04-29 21:07 11.09956 -86.16591 34798 ft 448 kts 133°
2026-04-29 21:08 11.05983 -86.11706 34797 ft 448 kts 133°
2026-04-29 21:08 11.02008 -86.06819 34796 ft 448 kts 133°
2026-04-29 21:09 10.98034 -86.01935 34796 ft 448 kts 133°
2026-04-29 21:09 10.94058 -85.97051 34795 ft 448 kts 133°
2026-04-29 21:10 10.90111 -85.92204 34794 ft 448 kts 133°
2026-04-29 21:10 10.86105 -85.87362 34787 ft 447 kts 134°
2026-04-29 21:11 10.82051 -85.82567 34794 ft 447 kts 134°
2026-04-29 21:11 10.78002 -85.77768 34790 ft 446 kts 134°
2026-04-29 21:12 10.74066 -85.72869 34786 ft 447 kts 133°
2026-04-29 21:12 10.70133 -85.67968 34781 ft 447 kts 133°
2026-04-29 21:13 10.66226 -85.63106 34782 ft 447 kts 133°
2026-04-29 21:13 10.62294 -85.58216 34773 ft 445 kts 133°
2026-04-29 21:13 10.60367 -85.55817 34778 ft 433 kts 132°
2026-04-29 21:14 10.58744 -85.53255 34775 ft 432 kts 118°
2026-04-29 21:14 10.56109 -85.47774 34777 ft 431 kts 120°
2026-04-29 21:15 10.53461 -85.42319 34779 ft 430 kts 120°
2026-04-29 21:15 10.50814 -85.36853 34786 ft 430 kts 120°
2026-04-29 21:16 10.48171 -85.31397 34785 ft 430 kts 120°
2026-04-29 21:16 10.45544 -85.25976 34796 ft 430 kts 120°
2026-04-29 21:17 10.42897 -85.20518 34800 ft 430 kts 120°
2026-04-29 21:17 10.40254 -85.15072 34801 ft 430 kts 120°
2026-04-29 21:18 10.37624 -85.09654 34804 ft 430 kts 120°
2026-04-29 21:18 10.34976 -85.04202 34805 ft 430 kts 120°
2026-04-29 21:19 10.32332 -84.98760 34815 ft 430 kts 120°
2026-04-29 21:19 10.29690 -84.93324 34115 ft 427 kts 120°
2026-04-29 21:19 10.28377 -84.90626 33315 ft 425 kts 120°
2026-04-29 21:20 10.27069 -84.87938 32501 ft 423 kts 120°
2026-04-29 21:20 10.25769 -84.85266 31709 ft 421 kts 121°
2026-04-29 21:20 10.24474 -84.82604 30938 ft 419 kts 121°
2026-04-29 21:20 10.23188 -84.79962 30200 ft 417 kts 121°
2026-04-29 21:21 10.21904 -84.77322 29389 ft 415 kts 121°
2026-04-29 21:21 10.20631 -84.74707 28553 ft 412 kts 121°
2026-04-29 21:21 10.19382 -84.72142 27738 ft 410 kts 121°
2026-04-29 21:21 10.18122 -84.69556 26945 ft 408 kts 120°
2026-04-29 21:22 10.16867 -84.66980 26159 ft 406 kts 120°
2026-04-29 21:22 10.15597 -84.64422 25408 ft 403 kts 123°
2026-04-29 21:22 10.13903 -84.62217 24663 ft 393 kts 141°
2026-04-29 21:22 10.11693 -84.60648 23948 ft 385 kts 154°
2026-04-29 21:23 10.09425 -84.59325 23266 ft 384 kts 152°
2026-04-29 21:23 10.07120 -84.57950 22439 ft 383 kts 152°
2026-04-29 21:23 10.04821 -84.56584 21642 ft 382 kts 152°
2026-04-29 21:23 10.02540 -84.55205 20869 ft 380 kts 151°
2026-04-29 21:24 10.00274 -84.53827 20124 ft 379 kts 149°
2026-04-29 21:24 9.98274 -84.52104 19376 ft 380 kts 130°
2026-04-29 21:24 9.96950 -84.49794 18650 ft 380 kts 110°
2026-04-29 21:24 9.96103 -84.47253 17726 ft 382 kts 114°
2026-04-29 21:25 9.94990 -84.44894 16141 ft 334 kts 116°
2026-04-29 21:25 9.94148 -84.43139 7561 ft 326 kts 113°
2026-04-29 21:25 9.93122 -84.40739 5180 ft 359 kts 109°
2026-04-29 21:25 9.92559 -84.38585 6266 ft 279 kts 94°
2026-04-29 21:26 9.92846 -84.36733 6048 ft 261 kts 65°
2026-04-29 21:26 9.93519 -84.35457 6989 ft 135 kts 57°
2026-04-29 21:26 9.93967 -84.34571 6531 ft 157 kts 62°
2026-04-29 21:26 9.94400 -84.33527 5809 ft 169 kts 67°
2026-04-29 21:27 9.94707 -84.32732 4989 ft 194 kts 65°
2026-04-29 21:27 9.95342 -84.31174 4705 ft 162 kts 65°
2026-04-29 21:27 9.95791 -84.30094 4528 ft 173 kts 65°
2026-04-29 21:27 9.96257 -84.28868 4498 ft 185 kts 68°
2026-04-29 21:28 9.96722 -84.27689 4414 ft 172 kts 66°
2026-04-29 21:28 9.97164 -84.26649 4163 ft 155 kts 64°
2026-04-29 21:28 9.97592 -84.25630 3780 ft 158 kts 68°
2026-04-29 21:28 9.98013 -84.24556 3434 ft 164 kts 69°
2026-04-29 21:29 9.98441 -84.23440 3226 ft 176 kts 73°
2026-04-29 21:29 9.98875 -84.22267 3021 ft 176 kts 72°
2026-04-29 21:29 9.99256 -84.21196 3003 ft 137 kts 78°
2026-04-29 21:29 9.99621 -84.20252 3040 ft 149 kts 74°
2026-04-29 21:30 9.99842 -84.19607 3052 ft 39 kts 70°
2026-04-29 21:30 9.99858 -84.19560 3056 ft 0 kts 71°